Regional Weather Roundup
Issued by NWS

Home | Current Version | Previous Version | Text Only | Print | Product List | Glossary Off
Versions: 1 2 3 4 5 6 7 8 9 10 11 12 13 14 15 16 17 18 19 20 21 22 23 24 25 26 27 28 29 30 31 32 33 34 35 36 37 38 39 40 41 42 43 44 45 46 47 48 49 50

000
ASUS43 KOAX 180010
RWRNE

WEATHER ROUNDUP FOR NEBRASKA
NATIONAL WEATHER SERVICE OMAHA NE
600 PM CST WED DEC 17 2014

NOTES: SATELLITE DATA IS BEING USED TO AUGMENT CLOUD COVER ABOVE
       12000 FEET.
       "FAIR" INDICATES FEW OR NO CLOUDS BELOW 12,000 FEET WITH NO
       SIGNIFICANT WEATHER AND/OR OBSTRUCTIONS TO VISIBILITY.

  * THESE STATIONS DO NOT REPORT WEATHER SUCH AS RAIN...SNOW OR FOG.

NEZ001>004-019>022-054>056-180100-
NEBRASKA PANHANDLE

CITY           SKY/WX    TMP DP  RH WIND       PRES   REMARKS
SCOTTSBLUFF    PTCLDY    16  14  92 E9        29.97R WCI   4
6HR MIN TEMP:  16; 6HR MAX TEMP:  23;

ALLIANCE       CLOUDY    23  21  92 S13       29.97S WCI  11
6HR MIN TEMP:  22; 6HR MAX TEMP:  24;

CHADRON        CLEAR     18  15  88 S3        29.99R
6HR MIN TEMP:  18; 6HR MAX TEMP:  28;

KIMBALL        PTCLDY    21  19  93 CALM      29.92R
SIDNEY         CLOUDY    22  19  89 S12       29.98R FOG     WCI  10
6HR MIN TEMP:  20; 6HR MAX TEMP:  22;

$$

NEZ057>060-069>072-079>082-180100-
SOUTHWEST NEBRASKA

CITY           SKY/WX    TMP DP  RH WIND       PRES   REMARKS
NORTH PLATTE   CLOUDY    22  20  92 SE5       30.09S WCI  16
6HR MIN TEMP:  22; 6HR MAX TEMP:  23;

IMPERIAL       CLOUDY    24  20  84 S8        30.06R FOG     WCI  15
6HR MIN TEMP:  22; 6HR MAX TEMP:  24;

LEXINGTON      CLOUDY    24  22  95 E6        30.13R WCI  16
MCCOOK         CLOUDY    24  22  91 E7        30.11R FOG     WCI  16
6HR MIN TEMP:  22; 6HR MAX TEMP:  24;

OGALLALA       CLOUDY    23  22  96 S6        30.05S WCI  16
$$

NEZ005>010-023>029-035>040-094-180100-
NORTH CENTRAL NEBRASKA

CITY           SKY/WX    TMP DP  RH WIND       PRES   REMARKS
VALENTINE      CLOUDY    22  20  92 S10       30.09S WCI  11
6HR MIN TEMP:  20; 6HR MAX TEMP:  23;

AINSWORTH      CLOUDY    21  20  96 S6        30.10S FOG     WCI  13
BROKEN BOW     CLOUDY    22  20  92 SE8       30.12S WCI  12
6HR MIN TEMP:  20; 6HR MAX TEMP:  22;

O`NEILL        CLOUDY    21  19  94 SE3       30.19S
ORD            CLOUDY    22  19  89 SE6       30.15F WCI  14
6HR MIN TEMP:  19; 6HR MAX TEMP:  22;

THEDFORD       CLOUDY    22  22  96 S8        30.09R FOG     WCI  13
$$

NEZ041-046>049-061>064-073>077-083>087-180100-
SOUTH CENTRAL NEBRASKA

CITY           SKY/WX    TMP DP  RH WIND       PRES   REMARKS
GRAND ISLAND   MOCLDY    25  18  74 E5        30.19S WCI  19
6HR MIN TEMP:  23; 6HR MAX TEMP:  26;

AURORA         CLOUDY    26  19  76 E9        30.18F WCI  16
HASTINGS       CLOUDY    25  18  74 E6        30.16S WCI  18
6HR MIN TEMP:  23; 6HR MAX TEMP:  26;

HEBRON         CLOUDY    28  18  66 E7        30.20S WCI  20
HOLDREGE       CLOUDY    25  22  88 E8        30.13S WCI  16
KEARNEY *      CLOUDY    25  19  80 E7        30.16R WCI  17
YORK           CLOUDY    25 N/A N/A E8        30.19F WCI  16
$$

NEZ011>018-030>034-042>045-180100-
NORTHEAST NEBRASKA

CITY           SKY/WX    TMP DP  RH WIND       PRES   REMARKS
NORFOLK        CLOUDY    25  16  68 E7        30.21S WCI  17
6HR MIN TEMP:  24; 6HR MAX TEMP:  27;

ALBION         CLOUDY    24  19  80 CALM      30.19F
BLAIR          CLOUDY    27  19  71 CALM      30.24S
COLUMBUS *     CLOUDY    25  14  63 E7        30.23F WCI  17
FREMONT        CLOUDY    27  19  72 NE5       30.25F WCI  22
TEKAMAH        CLOUDY    26  18  71 N3        30.27F
6HR MIN TEMP:  22; 6HR MAX TEMP:  27;

WAYNE          CLOUDY    24  19  78 NE8       30.24S WCI  16
$$

NEZ050>053-065>068-078-088>093-180100-
SOUTHEAST NEBRASKA

CITY           SKY/WX    TMP DP  RH WIND       PRES   REMARKS
LINCOLN        CLOUDY    26  16  65 E6        30.25F WCI  19
6HR MIN TEMP:  24; 6HR MAX TEMP:  27;

OMAHA EPPLEY   CLOUDY    28  17  63 CALM      30.28S
6HR MIN TEMP:  23; 6HR MAX TEMP:  28;

BEATRICE       CLOUDY    27  19  72 E7        30.22S WCI  20
FALLS CITY     CLOUDY    28  20  71 E7        30.24F WCI  21
6HR MIN TEMP:  25; 6HR MAX TEMP:  28;

NEBRASKA CITY  CLOUDY    26  17  67 NE6       30.24F WCI  20
PLATTSMOUTH    CLOUDY    26  17  67 CALM      30.25F
$$

NEZ044-045-051>053-067-180100-
OMAHA AREA

CITY           SKY/WX    TMP DP  RH WIND       PRES   REMARKS
OMAHA EPPLEY   CLOUDY    28  17  63 CALM      30.28S
6HR MIN TEMP:  23; 6HR MAX TEMP:  28;

BLAIR          CLOUDY    27  19  71 CALM      30.24S
FREMONT        CLOUDY    27  19  72 NE5       30.25F WCI  22
MILLARD        CLOUDY    28  17  63 CALM      30.26S
OFFUTT AFB     CLOUDY    28  18  68 NE5       30.26S WCI  22
PLATTSMOUTH    CLOUDY    26  17  67 CALM      30.25F
WAHOO          CLOUDY    26  17  67 CALM      30.25S
$$


USA.gov is the U.S. government's official web portal to all federal, state and local government web resources and services.